| time (UTC) | temp C | wind direction | speed KPH | gust KPH | rain 1hr cm | rain 24hr cm | rain mn cm | humidity % | barometer mb |
| 20260906171530 | 29 | 121 | 16.1 | 29.0 | 0.00 | 0.03 | 0.03 | 57 | 1019.1 |
| 20260906170014 | 28 | 197 | 16.1 | 30.6 | 0.00 | 0.03 | 0.03 | 61 | 1019.2 |
| 20260906164517 | 27 | 184 | 16.1 | 29.0 | 0.00 | 0.03 | 0.03 | 63 | 1019.4 |
| 20260906163023 | 27 | 71 | 16.1 | 29.0 | 0.00 | 0.03 | 0.03 | 66 | 1019.6 |
| 20260906161528 | 26 | 122 | 14.5 | 29.0 | 0.00 | 0.03 | 0.03 | 70 | 1019.6 |
| 20260906160030 | 26 | 117 | 17.7 | 25.7 | 0.00 | 0.03 | 0.03 | 71 | 1019.6 |
| 20260906154531 | 25 | 110 | 14.5 | 27.4 | 0.00 | 0.03 | 0.03 | 74 | 1019.7 |
| 20260906153024 | 24 | 128 | 12.9 | 22.5 | 0.00 | 0.03 | 0.03 | 76 | 1019.6 |
| 20260906151528 | 24 | 92 | 17.7 | 25.7 | 0.00 | 0.03 | 0.03 | 78 | 1019.5 |
| 20260906150032 | 23 | 98 | 14.5 | 20.9 | 0.00 | 0.03 | 0.03 | 81 | 1019.2 |
| 20260906144502 | 22 | 115 | 12.9 | 20.9 | 0.00 | 0.03 | 0.03 | 81 | 1019.5 |
| 20260906143003 | 22 | 128 | 4.8 | 14.5 | 0.03 | 0.03 | 0.03 | 85 | 1019.4 |
| 20260906141505 | 21 | 102 | 3.2 | 11.3 | 0.03 | 0.03 | 0.03 | 86 | 1019.3 |
| 20260906140008 | 21 | 58 | 3.2 | 9.7 | 0.03 | 0.03 | 0.03 | 85 | 1018.9 |
| 20260906134519 | 22 | 102 | 0.0 | 3.2 | 0.03 | 0.03 | 0.03 | 82 | 1018.7 |
| 20260906133004 | 22 | 96 | 0.0 | 3.2 | 0.00 | 0.00 | 0.00 | 79 | 1018.6 |
| 20260906131509 | 22 | 92 | 0.0 | 3.2 | 0.00 | 0.00 | 0.00 | 78 | 1018.1 |
| 20260906130006 | 22 | 165 | 0.0 | 6.4 | 0.00 | 0.00 | 0.00 | 79 | 1017.8 |
| 20260906124509 | 22 | 131 | 1.6 | 3.2 | 0.00 | 0.00 | 0.00 | 79 | 1017.4 |
| 20260906123017 | 21 | 181 | 1.6 | 4.8 | 0.00 | 0.00 | 0.00 | 80 | 1017.1 |
| 20260906121504 | 21 | 196 | 1.6 | 4.8 | 0.00 | 0.00 | 0.00 | 80 | 1017.0 |
| 20260906120004 | 21 | 360 | 1.6 | 6.4 | 0.00 | 0.00 | 0.00 | 80 | 1017.0 |
| 20260906114520 | 22 | 238 | 3.2 | 6.4 | 0.00 | 0.00 | 0.00 | 78 | 1016.7 |
| 20260906113018 | 22 | 180 | 3.2 | 9.7 | 0.00 | 0.00 | 0.00 | 78 | 1016.6 |
| 20260906111532 | 22 | 211 | 4.8 | 11.3 | 0.00 | 0.00 | 0.00 | 78 | 1016.6 |
| 20260906110003 | 22 | 179 | 4.8 | 8.0 | 0.00 | 0.00 | 0.00 | 78 | 1016.4 |
| 20260906104510 | 22 | 360 | 3.2 | 8.0 | 0.00 | 0.00 | 0.00 | 77 | 1016.5 |
| 20260906103014 | 22 | 165 | 1.6 | 4.8 | 0.00 | 0.00 | 0.00 | 77 | 1016.6 |
| 20260906101520 | 22 | 150 | 0.0 | 3.2 | 0.00 | 0.00 | 0.00 | 77 | 1016.6 |
| 20260906100032 | 22 | 188 | 0.0 | 1.6 | 0.00 | 0.00 | 0.00 | 76 | 1016.6 |
| 20260906094530 | 23 | 188 | 0.0 | 3.2 | 0.00 | 0.00 | 0.00 | 74 | 1016.7 |
| 20260906093018 | 23 | 210 | 0.0 | 3.2 | 0.00 | 0.00 | 0.00 | 73 | 1016.5 |
| 20260906091518 | 23 | 248 | 0.0 | 6.4 | 0.00 | 0.00 | 0.00 | 72 | 1016.4 |
| 20260906090030 | 23 | 232 | 1.6 | 12.9 | 0.00 | 0.00 | 0.00 | 71 | 1016.5 |
| 20260906084528 | 24 | 189 | 6.4 | 14.5 | 0.00 | 0.00 | 0.00 | 71 | 1016.4 |
| 20260906083014 | 23 | 173 | 6.4 | 14.5 | 0.00 | 0.00 | 0.00 | 71 | 1016.5 |
| 20260906081530 | 23 | 360 | 4.8 | 14.5 | 0.00 | 0.00 | 0.00 | 72 | 1016.7 |
| 20260906080039 | 23 | 155 | 1.6 | 6.4 | 0.00 | 0.00 | 0.00 | 72 | 1016.8 |
| 20260906074533 | 23 | 185 | 3.2 | 8.0 | 0.00 | 0.00 | 0.00 | 71 | 1016.7 |
| 20260906073030 | 23 | 195 | 3.2 | 8.0 | 0.00 | 0.00 | 0.00 | 71 | 1017.0 |
| 20260906071514 | 23 | 209 | 3.2 | 9.7 | 0.00 | 0.00 | 0.00 | 72 | 1017.0 |
| 20260906070026 | 23 | 360 | 4.8 | 8.0 | 0.00 | 0.00 | 0.00 | 72 | 1017.0 |
| 20260906064526 | 23 | 186 | 3.2 | 6.4 | 0.00 | 0.00 | 0.00 | 71 | 1016.8 |
| 20260906063035 | 23 | 197 | 1.6 | 6.4 | 0.00 | 0.00 | 0.00 | 71 | 1016.9 |
| 20260906061532 | 23 | 152 | 1.6 | 6.4 | 0.00 | 0.00 | 0.00 | 70 | 1017.1 |
| 20260906060015 | 23 | 194 | 1.6 | 6.4 | 0.00 | 0.00 | 0.00 | 71 | 1017.1 |
| 20260906054531 | 23 | 188 | 1.6 | 3.2 | 0.00 | 0.00 | 0.00 | 71 | 1017.0 |
| 20260906053028 | 23 | 178 | 1.6 | 4.8 | 0.00 | 0.00 | 0.00 | 70 | 1016.7 |
| 20260906051510 | 23 | 128 | 1.6 | 3.2 | 0.00 | 0.00 | 0.00 | 68 | 1016.4 |
| 20260906050014 | 24 | 178 | 0.0 | 0.0 | 0.00 | 0.00 | 0.00 | 66 | 1016.4 |
| 20260906044525 | 25 | 162 | 0.0 | 3.2 | 0.00 | 0.00 | 0.00 | 65 | 1016.0 |
| 20260906043028 | 25 | 239 | 3.2 | 8.0 | 0.00 | 0.00 | 0.00 | 63 | 1015.8 |
| 20260906041508 | 26 | 360 | 4.8 | 9.7 | 0.00 | 0.00 | 0.00 | 60 | 1015.8 |
| 20260906040020 | 26 | 167 | 6.4 | 12.9 | 0.00 | 0.00 | 0.00 | 59 | 1015.8 |
| 20260906034520 | 26 | 360 | 6.4 | 14.5 | 0.00 | 0.00 | 0.00 | 58 | 1015.8 |
| 20260906033037 | 26 | 150 | 6.4 | 16.1 | 0.00 | 0.00 | 0.00 | 58 | 1015.9 |
| 20260906031537 | 27 | 360 | 8.0 | 19.3 | 0.00 | 0.00 | 0.00 | 57 | 1015.9 |
| 20260906030012 | 27 | 141 | 9.7 | 22.5 | 0.00 | 0.00 | 0.00 | 57 | 1015.8 |
| 20260906024533 | 27 | 172 | 9.7 | 24.1 | 0.00 | 0.00 | 0.00 | 57 | 1015.8 |
| 20260906023026 | 27 | 184 | 11.3 | 20.9 | 0.00 | 0.00 | 0.00 | 57 | 1015.5 |
| 20260906021529 | 27 | 132 | 9.7 | 20.9 | 0.00 | 0.00 | 0.00 | 57 | 1015.2 |
| 20260906020032 | 27 | 121 | 9.7 | 17.7 | 0.00 | 0.00 | 0.00 | 56 | 1015.1 |
| 20260906014527 | 27 | 360 | 8.0 | 19.3 | 0.00 | 0.00 | 0.00 | 55 | 1015.0 |
| 20260906013039 | 28 | 150 | 11.3 | 19.3 | 0.00 | 0.00 | 0.00 | 53 | 1015.0 |
| 20260906011529 | 29 | 161 | 9.7 | 22.5 | 0.00 | 0.00 | 0.00 | 52 | 1014.9 |
| 20260906010032 | 30 | 176 | 11.3 | 19.3 | 0.00 | 0.00 | 0.00 | 51 | 1014.8 |
| 20260906004531 | 30 | 140 | 8.0 | 20.9 | 0.00 | 0.00 | 0.00 | 48 | 1014.7 |
| 20260906003025 | 32 | 360 | 4.8 | 9.7 | 0.00 | 0.00 | 0.00 | 40 | 1014.6 |
| 20260906001528 | 32 | 167 | 1.6 | 12.9 | 0.00 | 0.00 | 0.00 | 40 | 1014.8 |
| 20260906000030 | 32 | 169 | 4.8 | 11.3 | 0.00 | 0.00 | 0.00 | 40 | 1014.9 |
| 20260905234512 | 33 | 177 | 3.2 | 9.7 | 0.00 | 0.00 | 0.00 | 40 | 1014.9 |
| 20260905233002 | 33 | 360 | 4.8 | 17.7 | 0.00 | 0.00 | 0.00 | 38 | 1014.7 |
| 20260905231504 | 34 | 360 | 8.0 | 19.3 | 0.00 | 0.00 | 0.00 | 37 | 1014.6 |
| 20260905230006 | 35 | 360 | 9.7 | 19.3 | 0.00 | 0.00 | 0.00 | 36 | 1014.5 |
| 20260905224510 | 35 | 226 | 8.0 | 20.9 | 0.00 | 0.00 | 0.00 | 35 | 1014.3 |
| 20260905223014 | 36 | 168 | 9.7 | 19.3 | 0.00 | 0.00 | 0.00 | 35 | 1014.2 |
| 20260905221502 | 36 | 243 | 9.7 | 19.3 | 0.00 | 0.00 | 0.00 | 38 | 1014.1 |
| 20260905220003 | 35 | 162 | 9.7 | 17.7 | 0.00 | 0.00 | 0.00 | 37 | 1014.1 |
| 20260905214507 | 35 | 153 | 8.0 | 22.5 | 0.00 | 0.00 | 0.00 | 39 | 1014.1 |
| 20260905213014 | 35 | 150 | 8.0 | 19.3 | 0.00 | 0.00 | 0.00 | 40 | 1014.2 |
| 20260905211533 | 35 | 247 | 9.7 | 16.1 | 0.00 | 0.00 | 0.00 | 41 | 1014.5 |
| 20260905210004 | 35 | 140 | 8.0 | 19.3 | 0.00 | 0.00 | 0.00 | 41 | 1014.8 |
| 20260905204507 | 34 | 212 | 6.4 | 17.7 | 0.00 | 0.00 | 0.00 | 43 | 1015.0 |
| 20260905203012 | 33 | 186 | 6.4 | 22.5 | 0.00 | 0.00 | 0.00 | 46 | 1015.4 |
| 20260905201518 | 33 | 227 | 6.4 | 14.5 | 0.00 | 0.00 | 0.00 | 47 | 1015.6 |
| 20260905200030 | 33 | 210 | 4.8 | 12.9 | 0.00 | 0.00 | 0.00 | 49 | 1015.9 |
| 20260905194505 | 33 | 167 | 4.8 | 14.5 | 0.00 | 0.00 | 0.00 | 47 | 1016.0 |
| 20260905193008 | 32 | 184 | 6.4 | 12.9 | 0.00 | 0.00 | 0.00 | 49 | 1016.2 |
| 20260905191516 | 32 | 165 | 4.8 | 16.1 | 0.00 | 0.00 | 0.00 | 51 | 1016.4 |
| 20260905190023 | 31 | 135 | 3.2 | 9.7 | 0.00 | 0.00 | 0.00 | 54 | 1016.4 |
| 20260905184535 | 30 | 169 | 4.8 | 9.7 | 0.00 | 0.00 | 0.00 | 57 | 1016.7 |
| 20260905183006 | 30 | 212 | 3.2 | 8.0 | 0.00 | 0.00 | 0.00 | 58 | 1016.9 |
| 20260905181515 | 29 | 165 | 1.6 | 6.4 | 0.00 | 0.00 | 0.00 | 62 | 1017.0 |
| 20260905180022 | 28 | 223 | 3.2 | 8.0 | 0.00 | 0.00 | 0.00 | 62 | 1017.1 |
| 20260905174529 | 28 | 173 | 3.2 | 11.3 | 0.00 | 0.00 | 0.00 | 62 | 1017.2 |
| 20260905173028 | 28 | 168 | 3.2 | 12.9 | 0.00 | 0.00 | 0.00 | 62 | 1017.2 |